Princeton, MN

8:56 PM CST on November 11, 2019 (GMT -0600)
Princeton Municipal

Weather History for KPNM - September, 2019

Change the Weather History Date:

Friday, September 6, 2019

  Actual Average Record
Temperature  
Mean Temperature 66 °F -  
Max Temperature 78 °F 74 °F 93 °F (2013)
Min Temperature 53 °F 51 °F 41 °F (2017)
Growing Degree Days 16 (Base 50)    
Moisture  
Dew Point 58 °F    
Average Humidity 72    
Maximum Humidity 100    
Minimum Humidity 51    
Precipitation  
Precipitation 0.00 in - - ()
Sea Level Pressure  
Sea Level Pressure 30.08 in    
Wind  
Wind Speed 7 mph (NW)    
Max Wind Speed 13 mph    
Max Gust Speed 26 mph    
Visibility 10 miles    
Events      
Averages and records for this station are not official NWS values.
T = Trace of Precipitation, MM = Missing Value Source: NWS Daily Summary

Daily Weather History Graph

Daily Weather History Graph

Search for Another Location

Airport or City:

Astronomy

Sep. 06, 2019 Rise Set
Actual Time 6:41 AM CDT 7:43 PM CDT
Civil Twilight 6:11 AM CDT 8:13 PM CDT
Nautical Twilight 5:35 AM CDT 8:49 PM CDT
Astronomical Twilight 4:56 AM CDT 9:27 PM CDT
Moon 3:13 PM CDT (9/6) No Moon Set
Length of Visible Light 14h 02m
Length of Day
13h 01m
First Quarter, 56% of the Moon is Illuminated
Sep 6
First Quarter
Sep 13
Full
Sep 21
Last Quarter
Sep 28
New
Oct 5
First Quarter

Hourly Weather History & Observations

Time (CDT) Temp. Dew Point Humidity Pressure Visibility Wind Dir Wind Speed Gust Speed Precip Events Conditions
12:15 AM 66.2 °F 60.8 °F 83% 29.96 in 10.0 mi NW 10.4 mph - N/A   Overcast
12:16 AM 66.2 °F 60.8 °F 83% 29.96 in 10.0 mi NW 8.1 mph - N/A   Overcast
12:40 AM 66.2 °F 60.8 °F 83% 29.97 in 10.0 mi NW 10.4 mph - N/A   Overcast
12:58 AM 66.2 °F 60.8 °F 83% 29.97 in 10.0 mi NW 10.4 mph - N/A   Overcast
1:16 AM 66.2 °F 60.8 °F 83% 29.98 in 10.0 mi WNW 10.4 mph - N/A   Overcast
1:35 AM 66.2 °F 60.8 °F 83% 29.98 in 10.0 mi NW 12.7 mph 19.6 mph N/A   Overcast
1:55 AM 66.2 °F 60.8 °F 83% 29.99 in 10.0 mi NW 8.1 mph 16.1 mph N/A   Overcast
2:19 AM 64.4 °F 59.0 °F 83% 30.00 in 10.0 mi NW 8.1 mph - N/A   Overcast
2:37 AM 64.4 °F 59.0 °F 83% 30.01 in 10.0 mi NW 10.4 mph - N/A   Overcast
2:55 AM 64.4 °F 57.2 °F 77% 30.01 in 10.0 mi NW 11.5 mph 26.5 mph N/A   Overcast
2:56 AM 64.4 °F 57.2 °F 77% 30.01 in 10.0 mi NW 11.5 mph 26.5 mph N/A   Overcast
3:15 AM 64.4 °F 57.2 °F 77% 30.01 in 10.0 mi NW 8.1 mph - N/A   Overcast
3:35 AM 64.4 °F 57.2 °F 77% 30.02 in 10.0 mi NW 9.2 mph - N/A   Mostly Cloudy
3:58 AM 62.6 °F 57.2 °F 82% 30.02 in 10.0 mi NW 9.2 mph - N/A   Mostly Cloudy
4:16 AM 62.6 °F 57.2 °F 82% 30.03 in 10.0 mi NW 5.8 mph - N/A   Mostly Cloudy
4:35 AM 62.6 °F 57.2 °F 82% 30.03 in 10.0 mi NW 6.9 mph - N/A   Overcast
4:55 AM 62.6 °F 57.2 °F 82% 30.04 in 10.0 mi NW 5.8 mph - N/A   Overcast
5:19 AM 62.6 °F 55.4 °F 77% 30.04 in 10.0 mi NNW 10.4 mph - N/A   Overcast
5:37 AM 62.6 °F 55.4 °F 77% 30.05 in 10.0 mi NNW 10.4 mph - N/A   Overcast
5:55 AM 62.6 °F 55.4 °F 77% 30.06 in 10.0 mi NNW 6.9 mph - N/A   Overcast
5:56 AM 62.6 °F 55.4 °F 77% 30.06 in 10.0 mi NNW 8.1 mph - N/A   Overcast
6:15 AM 62.6 °F 55.4 °F 77% 30.07 in 10.0 mi North 9.2 mph - N/A   Overcast
6:35 AM 62.6 °F 55.4 °F 77% 30.07 in 10.0 mi North 8.1 mph - N/A   Overcast
6:58 AM 60.8 °F 55.4 °F 82% 30.08 in 10.0 mi NNW 4.6 mph - N/A   Scattered Clouds
7:16 AM 60.8 °F 55.4 °F 82% 30.09 in 10.0 mi North 4.6 mph - N/A   Scattered Clouds
7:35 AM 60.8 °F 55.4 °F 82% 30.10 in 10.0 mi NNW 3.5 mph - N/A   Mostly Cloudy
7:55 AM 62.6 °F 57.2 °F 82% 30.11 in 10.0 mi Calm Calm - N/A   Mostly Cloudy
8:19 AM 62.6 °F 57.2 °F 82% 30.12 in 10.0 mi West 4.6 mph - N/A   Clear
8:37 AM 64.4 °F 57.2 °F 77% 30.12 in 10.0 mi NW 4.6 mph - N/A   Clear
8:55 AM 64.4 °F 57.2 °F 77% 30.12 in 10.0 mi NNW 5.8 mph - N/A   Clear
9:15 AM 64.4 °F 57.2 °F 77% 30.12 in 10.0 mi NW 5.8 mph - N/A   Scattered Clouds
9:16 AM 64.4 °F 57.2 °F 77% 30.12 in 10.0 mi NW 5.8 mph - N/A   Scattered Clouds
9:35 AM 64.4 °F 57.2 °F 77% 30.12 in 10.0 mi NNW 6.9 mph - N/A   Scattered Clouds
9:58 AM 68.0 °F 57.2 °F 68% 30.13 in 10.0 mi NW 5.8 mph - N/A   Scattered Clouds
10:16 AM 66.2 °F 57.2 °F 73% 30.13 in 10.0 mi NNW 5.8 mph - N/A   Scattered Clouds
10:35 AM 69.8 °F 57.2 °F 64% 30.13 in 10.0 mi NNW 6.9 mph - N/A   Clear
10:36 AM 69.8 °F 57.2 °F 64% 30.13 in 10.0 mi NW 4.6 mph - N/A   Clear
10:55 AM 69.8 °F 57.2 °F 64% 30.12 in 10.0 mi NNW 3.5 mph - N/A   Clear
11:19 AM 71.6 °F 57.2 °F 60% 30.13 in 10.0 mi NNW 5.8 mph - N/A   Scattered Clouds
11:37 AM 71.6 °F 57.2 °F 60% 30.13 in 10.0 mi NW 6.9 mph - N/A   Mostly Cloudy
11:55 AM 71.6 °F 57.2 °F 60% 30.13 in 10.0 mi NNW 3.5 mph - N/A   Scattered Clouds
11:56 AM 71.6 °F 57.2 °F 60% 30.13 in 10.0 mi Calm Calm - N/A   Scattered Clouds
12:15 PM 73.4 °F 57.2 °F 57% 30.12 in 10.0 mi NNW 3.5 mph - N/A   Clear
12:16 PM 73.4 °F 57.2 °F 57% 30.12 in 10.0 mi North 4.6 mph - N/A   Clear
12:35 PM 73.4 °F 59.0 °F 61% 30.12 in 10.0 mi WNW 8.1 mph - N/A   Scattered Clouds
12:40 PM 73.4 °F 59.0 °F 61% 30.12 in 10.0 mi NNW 6.9 mph - N/A   Scattered Clouds
12:58 PM 73.4 °F 59.0 °F 61% 30.12 in 10.0 mi NW 5.8 mph - N/A   Scattered Clouds
1:15 PM 75.2 °F 59.0 °F 57% 30.12 in 10.0 mi NNW 6.9 mph - N/A   Mostly Cloudy
1:35 PM 75.2 °F 59.0 °F 57% 30.12 in 10.0 mi WNW 5.8 mph - N/A   Mostly Cloudy
1:55 PM 77.0 °F 59.0 °F 54% 30.11 in 10.0 mi West 8.1 mph - N/A   Scattered Clouds
2:19 PM 77.0 °F 59.0 °F 54% 30.10 in 10.0 mi West 8.1 mph - N/A   Scattered Clouds
2:36 PM 75.2 °F 59.0 °F 57% 30.10 in 10.0 mi WNW 4.6 mph - N/A   Scattered Clouds
2:55 PM 75.2 °F 60.8 °F 61% 30.10 in 10.0 mi WSW 9.2 mph - N/A   Scattered Clouds
3:15 PM 77.0 °F 59.0 °F 54% 30.10 in 10.0 mi West 4.6 mph - N/A   Scattered Clouds
3:16 PM 77.0 °F 59.0 °F 54% 30.10 in 10.0 mi WNW 5.8 mph - N/A   Scattered Clouds
3:35 PM 75.2 °F 60.8 °F 61% 30.09 in 10.0 mi West 3.5 mph - N/A   Scattered Clouds
3:40 PM 75.2 °F 60.8 °F 61% 30.09 in 10.0 mi West 5.8 mph - N/A   Scattered Clouds
3:58 PM 78.8 °F 60.8 °F 54% 30.09 in 10.0 mi WSW 6.9 mph - N/A   Scattered Clouds
4:16 PM 78.8 °F 59.0 °F 51% 30.08 in 10.0 mi West 5.8 mph - N/A   Scattered Clouds
4:35 PM 77.0 °F 59.0 °F 54% 30.07 in 10.0 mi West 5.8 mph - N/A   Scattered Clouds
4:55 PM 78.8 °F 60.8 °F 54% 30.07 in 10.0 mi West 6.9 mph - N/A   Clear
5:19 PM 75.2 °F 60.8 °F 61% 30.07 in 10.0 mi Calm Calm - N/A   Scattered Clouds
5:37 PM 78.8 °F 59.0 °F 51% 30.06 in 10.0 mi West 9.2 mph - N/A   Scattered Clouds
5:55 PM 75.2 °F 60.8 °F 61% 30.06 in 10.0 mi WSW 3.5 mph - N/A   Scattered Clouds
6:15 PM 73.4 °F 60.8 °F 65% 30.05 in 10.0 mi Calm Calm - N/A   Scattered Clouds
6:35 PM 75.2 °F 60.8 °F 61% 30.05 in 10.0 mi SW 3.5 mph - N/A   Mostly Cloudy
6:40 PM 75.2 °F 60.8 °F 61% 30.05 in 10.0 mi SW 3.5 mph - N/A   Scattered Clouds
6:58 PM 73.4 °F 60.8 °F 65% 30.05 in 10.0 mi West 5.8 mph - N/A   Scattered Clouds
7:16 PM 73.4 °F 62.6 °F 69% 30.05 in 10.0 mi West 5.8 mph - N/A   Clear
7:35 PM 71.6 °F 60.8 °F 69% 30.06 in 10.0 mi WNW 6.9 mph - N/A   Clear
7:55 PM 69.8 °F 59.0 °F 68% 30.06 in 10.0 mi NW 5.8 mph - N/A   Clear
7:56 PM 69.8 °F 59.0 °F 68% 30.06 in 10.0 mi NW 6.9 mph - N/A   Clear
8:19 PM 68.0 °F 57.2 °F 68% 30.07 in 10.0 mi WNW 4.6 mph - N/A   Clear
8:37 PM 66.2 °F 57.2 °F 73% 30.07 in 10.0 mi WNW 5.8 mph - N/A   Clear
8:55 PM 64.4 °F 55.4 °F 73% 30.08 in 10.0 mi WNW 6.9 mph - N/A   Clear
9:15 PM 64.4 °F 55.4 °F 73% 30.09 in 10.0 mi NW 4.6 mph - N/A   Clear
9:16 PM 64.4 °F 55.4 °F 73% 30.09 in 10.0 mi NW 4.6 mph - N/A   Clear
9:35 PM 62.6 °F 55.4 °F 77% 30.09 in 10.0 mi NW 3.5 mph - N/A   Clear
9:58 PM 62.6 °F 55.4 °F 77% 30.10 in 10.0 mi Calm Calm - N/A   Clear
10:16 PM 60.8 °F 55.4 °F 82% 30.10 in 10.0 mi Calm Calm - N/A   Clear
10:35 PM 55.4 °F 53.6 °F 94% 30.10 in 10.0 mi Calm Calm - N/A   Clear
10:55 PM 55.4 °F 53.6 °F 94% 30.10 in 10.0 mi Calm Calm - N/A   Clear
10:56 PM 55.4 °F 53.6 °F 94% 30.10 in 10.0 mi Calm Calm - N/A   Clear
11:19 PM 55.4 °F 53.6 °F 94% 30.10 in 10.0 mi Calm Calm - N/A   Clear
11:37 PM 55.4 °F 53.6 °F 94% 30.10 in 10.0 mi Calm Calm - N/A   Clear
11:55 PM 53.6 °F 53.6 °F 100% 30.10 in 10.0 mi Calm Calm - N/A   Clear
11:56 PM 53.6 °F 53.6 °F 100% 30.10 in 10.0 mi Calm Calm - N/A   Clear